Weather History for Eagle, CO

Change the Weather History Date:

Saturday, September 1, 2012

  Actual Average Record
Temperature  
Mean Temperature 66 °F -  
Max Temperature 84 °F 80 °F 92 °F (1950)
Min Temperature 48 °F 42 °F 25 °F (1965)
Cooling Degree Days 1    
Growing Degree Days 16 (Base 50)    
Moisture  
Dew Point 46 °F    
Average Humidity 60    
Maximum Humidity 93    
Minimum Humidity 18    
Precipitation  
Precipitation 0.00 in - - ()
Sea Level Pressure  
Sea Level Pressure 30.24 in    
Wind  
Wind Speed 5 mph (East)    
Max Wind Speed 17 mph    
Max Gust Speed 25 mph    
Visibility 10 miles    
Events      
Averages and records for this station are not official NWS values.
T = Trace of Precipitation, MM = Missing Value Source: NWS Daily Summary

Daily Weather History Graph

Daily Weather History Graph

Search for Another Location

Airport:

Trip Planner

Search our weather history database for the weather conditions in past years. The results will help you decide how hot, cold, wet, or windy it might be!

Date:

Astronomy

Sep. 01, 2012 Rise Set
Actual Time 6:36 AM MDT 7:37 PM MDT
Civil Twilight 6:08 AM MDT 8:05 PM MDT
Nautical Twilight 5:35 AM MDT 8:38 PM MDT
Astronomical Twilight 5:01 AM MDT 9:12 PM MDT
Moon 7:56 PM MDT (9/1) 7:46 AM MDT (9/1)
Length of Visible Light 13h 56m
Length of Day
13h 01m
Full, 98% of the Moon is Illuminated
Sep 1
Full
Sep 8
Last Quarter
Sep 15
New
Sep 22
First Quarter
Sep 29
Full

Hourly Weather History & Observations

Time (MDT) Temp. Dew Point Humidity Pressure Visibility Wind Dir Wind Speed Gust Speed Precip Events Conditions
12:15 AM 62.6 °F 50.0 °F 63% 30.25 in 10.0 mi East 5.8 mph - N/A   Clear
12:35 AM 60.8 °F 50.0 °F 68% 30.24 in 10.0 mi NE 4.6 mph - N/A   Clear
12:55 AM 59.0 °F 50.0 °F 72% 30.24 in 10.0 mi NE 6.9 mph - N/A   Clear
1:15 AM 59.0 °F 50.0 °F 72% 30.24 in 10.0 mi ENE 6.9 mph - N/A   Clear
1:35 AM 59.0 °F 50.0 °F 72% 30.25 in 10.0 mi ESE 6.9 mph - N/A   Clear
1:55 AM 57.2 °F 48.2 °F 72% 30.25 in 10.0 mi Calm Calm - N/A   Clear
2:15 AM 57.2 °F 50.0 °F 77% 30.24 in 10.0 mi Calm Calm - N/A   Clear
2:35 AM 57.2 °F 48.2 °F 72% 30.25 in 10.0 mi Calm Calm - N/A   Clear
2:55 AM 55.4 °F 48.2 °F 77% 30.25 in 10.0 mi Calm Calm - N/A   Clear
3:15 AM 53.6 °F 46.4 °F 77% 30.25 in 10.0 mi SSE 3.5 mph - N/A   Clear
3:35 AM 53.6 °F 46.4 °F 77% 30.25 in 10.0 mi Calm Calm - N/A   Clear
4:15 AM 53.6 °F 48.2 °F 82% 30.26 in 10.0 mi East 3.5 mph - N/A   Clear
4:35 AM 51.8 °F 46.4 °F 82% 30.26 in 10.0 mi East 6.9 mph - N/A   Clear
4:55 AM 51.8 °F 46.4 °F 82% 30.27 in 10.0 mi East 5.8 mph - N/A   Clear
5:15 AM 51.8 °F 46.4 °F 82% 30.27 in 10.0 mi East 5.8 mph - N/A   Clear
5:35 AM 51.8 °F 46.4 °F 82% 30.27 in 10.0 mi ESE 4.6 mph - N/A   Clear
5:55 AM 50.0 °F 46.4 °F 87% 30.28 in 10.0 mi East 4.6 mph - N/A   Clear
6:15 AM 50.0 °F 46.4 °F 87% 30.28 in 10.0 mi East 4.6 mph - N/A   Clear
6:35 AM 48.2 °F 46.4 °F 93% 30.28 in 10.0 mi Calm Calm - N/A   Clear
6:50 AM 48.2 °F 46.4 °F 93% 30.29 in 10.0 mi Calm Calm - N/A   Partly Cloudy
7:50 AM 53.6 °F 46.4 °F 77% 30.29 in 10.0 mi Calm Calm - N/A   Partly Cloudy
8:50 AM 57.2 °F 48.2 °F 72% 30.29 in 10.0 mi Calm Calm - N/A   Partly Cloudy
9:50 AM 60.8 °F 48.2 °F 63% 30.29 in 10.0 mi Calm Calm - N/A   Scattered Clouds
10:50 AM 64.4 °F 48.2 °F 56% 30.29 in 10.0 mi Calm Calm - N/A   Mostly Cloudy
11:50 AM 71.6 °F 48.2 °F 43% 30.28 in 10.0 mi Variable 6.9 mph - N/A   Mostly Cloudy
12:50 PM 78.8 °F 46.4 °F 32% 30.24 in 10.0 mi NNW 5.8 mph - N/A   Mostly Cloudy
1:50 PM 75.2 °F 46.4 °F 36% 30.22 in 10.0 mi West 13.8 mph - N/A   Mostly Cloudy
2:50 PM 80.6 °F 33.8 °F 18% 30.19 in 10.0 mi SSW 12.7 mph 23.0 mph N/A   Scattered Clouds
3:50 PM 84.2 °F 39.2 °F 20% 30.14 in 10.0 mi SSW 17.3 mph 25.3 mph N/A   Mostly Cloudy
4:50 PM 80.6 °F 44.6 °F 28% 30.14 in 10.0 mi West 16.1 mph 21.9 mph N/A   Mostly Cloudy
5:50 PM 80.6 °F 41.0 °F 24% 30.15 in 10.0 mi West 8.1 mph 18.4 mph N/A   Mostly Cloudy
6:50 PM 78.8 °F 41.0 °F 26% 30.15 in 10.0 mi WSW 4.6 mph - N/A   Mostly Cloudy
7:55 PM 73.4 °F 42.8 °F 33% 30.16 in 10.0 mi NE 5.8 mph - N/A   Clear
8:55 PM 69.8 °F 44.6 °F 40% 30.19 in 10.0 mi East 4.6 mph - N/A   Partly Cloudy
9:15 PM 69.8 °F 46.4 °F 43% 30.20 in 10.0 mi East 4.6 mph - N/A   Mostly Cloudy
9:35 PM 68.0 °F 46.4 °F 46% 30.20 in 10.0 mi East 4.6 mph - N/A   Partly Cloudy
10:15 PM 69.8 °F 44.6 °F 40% 30.21 in 10.0 mi Calm Calm - N/A   Partly Cloudy
10:35 PM 69.8 °F 44.6 °F 40% 30.22 in 10.0 mi WSW 6.9 mph - N/A   Scattered Clouds
10:55 PM 68.0 °F 46.4 °F 46% 30.23 in 10.0 mi West 9.2 mph 16.1 mph N/A   Mostly Cloudy
11:35 PM 66.2 °F 46.4 °F 49% 30.26 in 10.0 mi West 9.2 mph - N/A   Clear